Home   Weather   Ponta Grossa   Past weeks
Flag for Brazil

Past Weather in Ponta Grossa, Paraná, Brazil — Yesterday and Last 2 Weeks

Now
52 °F

Cool.


Feels Like: 51 °F
Forecast: 72 / 49 °F
Wind: 3 mph from Northeast

Location: Curitiba Aeroporto

Current Time: Jul 20, 2019 at 7:23:43 am

Latest Report: Jul 20, 2019 at 7:00 am


Visibility: 1 mi

Pressure: 30.27 "Hg (26.97 "Hg at 961m altitude)

Humidity: 100%

Dew Point: 52 °F

Location of Ponta GrossaLocation

Past Weather in Ponta Grossa — Graph

°F

Ponta Grossa Temperature Yesterday

Maximum temperature yesterday: 66 °F (at 3:00 pm)
Minimum temperature yesterday: 54 °F (at 12:00 am)
Average temperature yesterday: 57 °F

High & Low Weather Summary for the Past Weeks

 TemperatureHumidityPressure
High79 °F (Jul 14, 2:00 pm)100% (Jul 7, 6:00 am)30.39 "Hg (Jul 7, 6:00 am)
Low30 °F (Jul 6, 6:00 am)33% (Jul 10, 4:00 pm)30.01 "Hg (Jul 14, 2:00 pm)
Average53 °F78%30.23 "Hg
* Reported Jul 5 6:00 am — Jul 20 6:30 am, Ponta Grossa. Weather by CustomWeather, © 2019

Note: Actual official high and low records may vary slightly from our data, if they occured in-between our weather recording intervals... More about our weather records

Advertising

Ponta Grossa Weather History for the Previous 24 Hours

Scroll right to see more
 ConditionsComfort  
Time TempWeatherWind HumidityBarometerVisibility
6:30 am
Sat, Jul 20
54 °FCool.6 mph94%30.27 "Hg1 mi
6:00 am54 °FPassing clouds.2 mph94%30.27 "Hg4 mi
5:00 am54 °FLow clouds.3 mph100%30.24 "Hg6 mi
4:00 am54 °FLow clouds.2 mph100%30.27 "HgN/A
3:00 am55 °FPassing clouds.2 mph94%30.27 "HgN/A
2:00 am55 °FLow clouds.2 mph94%30.27 "HgN/A
1:00 am55 °FLow clouds.5 mph94%30.27 "Hg5 mi
12:00 am55 °FLow clouds.8 mph94%30.27 "Hg4 mi
11:00 pm
Fri, Jul 19
55 °FFog.5 mph94%30.27 "Hg3 mi
10:00 pm54 °FPassing clouds.5 mph100%30.27 "Hg4 mi
9:00 pm54 °FPassing clouds.5 mph100%30.27 "HgN/A
8:00 pm55 °FClear.3 mph94%30.27 "Hg10 mi
7:00 pm55 °FClear.6 mph94%30.27 "Hg10 mi
6:00 pm57 °FPassing clouds.6 mph88%30.27 "HgN/A
5:00 pm61 °FScattered clouds.7 mph77%30.27 "HgN/A
4:00 pm66 °FScattered clouds.5 mph49%30.24 "HgN/A
3:00 pm66 °FScattered clouds.3 mph52%30.24 "HgN/A
2:00 pm64 °FScattered clouds.3 mph60%30.27 "HgN/A
1:00 pm63 °FPartly sunny.6 mph68%30.30 "HgN/A
12:00 pm61 °FBroken clouds.9 mph72%30.33 "HgN/A
11:10 am61 °FBroken clouds.13 mph72%30.33 "HgN/A
10:00 am59 °FMostly cloudy.12 mph82%30.36 "HgN/A
9:00 am55 °FMostly cloudy.5 mph94%30.33 "HgN/A
8:00 am55 °FMostly cloudy.6 mph94%30.33 "HgN/A
7:00 am54 °FBroken clouds.8 mph94%30.30 "Hg4 mi
Weather by CustomWeather, © 2019

See weather overview